Date,TemperatureHighF,TemperatureAvgF,TemperatureLowF,DewpointHighF,DewpointAvgF,DewpointLowF,HumidityHigh,HumidityAvg,HumidityLow,PressureMaxIn,PressureMinIn,WindSpeedMaxMPH,WindSpeedAvgMPH,GustSpeedMaxMPH,PrecipitationSumIn
2013-11-1,49.0,42.0,36.0,32.0,22.4,15.0,78,48,28,0.00,40.00,24,10,48,0.00
2013-11-2,57.0,46.1,36.0,29.0,21.5,-99.9,50,39,29,0.00,40.00,13,7,19,0.00
2013-11-3,56.0,46.9,33.0,33.0,27.8,21.0,94,51,28,0.00,40.00,11,6,22,0.00
2013-11-4,42.0,35.0,28.0,32.0,22.2,13.0,96,62,33,0.00,40.00,9,5,18,0.01
2013-11-5,29.0,26.0,20.0,27.0,23.6,16.0,94,90,82,0.00,40.00,10,6,15,0.06
2013-11-6,45.0,33.0,18.0,30.0,20.9,14.0,87,62,43,0.00,40.00,12,6,27,0.18
2013-11-7,49.0,38.5,28.0,30.0,25.1,18.0,89,61,36,0.00,40.00,10,6,15,0.01
2013-11-8,52.0,46.1,38.0,31.0,22.1,18.0,57,39,27,0.00,40.00,19,9,36,0.00
2013-11-9,51.0,40.2,33.0,28.0,22.1,-99.9,65,50,35,0.00,40.00,12,6,18,0.00
2013-11-10,60.0,42.1,31.0,32.0,26.4,18.0,85,55,35,0.00,40.00,12,4,21,0.00
2013-11-11,31.0,21.8,18.0,27.0,19.4,16.0,96,90,85,0.00,40.00,12,5,22,0.00
2013-11-12,58.0,38.9,21.0,27.0,22.5,16.0,91,57,28,0.00,40.00,13,6,22,0.00
2013-11-13,62.0,51.7,44.0,37.0,25.5,15.0,71,37,23,0.00,40.00,7,4,21,0.00
2013-11-14,53.0,43.5,37.0,38.0,28.5,23.0,84,57,35,0.00,40.00,10,5,22,0.02
2013-11-15,52.0,42.6,34.0,29.0,25.5,22.0,74,52,34,0.00,40.00,7,4,24,0.00
2013-11-16,47.0,38.8,33.0,24.0,18.8,-99.9,58,46,34,0.00,40.00,11,7,25,0.00
2013-11-17,43.0,35.9,27.0,25.0,15.5,7.0,72,45,26,0.00,40.00,14,8,33,0.00
2013-11-18,56.0,38.6,25.0,22.0,14.7,9.0,52,39,23,0.00,40.00,11,4,21,0.00
2013-11-19,58.0,51.8,40.0,25.0,23.1,21.0,47,33,25,0.00,40.00,11,6,33,0.00
2013-11-20,48.0,35.9,17.0,29.0,22.1,12.0,91,59,40,0.00,40.00,12,4,19,0.00
2013-11-21,17.0,13.2,8.0,12.0,7.5,-1.0,87,78,64,0.00,40.00,13,5,20,0.00
2013-11-22,36.0,27.4,17.0,13.0,5.8,1.0,61,40,22,0.00,40.00,7,3,12,0.13
2013-11-23,41.0,23.4,11.0,13.0,4.5,-99.9,75,49,23,0.00,40.00,9,4,13,0.03
2013-11-24,42.0,35.8,31.0,24.0,16.9,3.0,64,47,29,0.00,40.00,11,5,22,0.00
2013-11-25,43.0,35.5,28.0,25.0,21.2,16.0,78,57,39,0.00,40.00,11,4,24,0.00
2013-11-26,33.0,27.4,21.0,21.0,18.2,13.0,84,69,51,0.00,40.00,9,4,15,0.00
2013-11-27,58.0,45.3,30.0,23.0,20.9,18.0,64,40,22,0.00,40.00,10,6,17,0.00
2013-11-28,38.0,30.9,21.0,24.0,21.4,17.0,85,68,56,0.00,40.00,9,4,13,0.00
2013-11-29,60.0,49.2,39.0,25.0,20.3,17.0,44,32,20,0.00,40.00,10,5,15,0.00
2013-11-30,52.0,40.9,34.0,25.0,20.9,-99.9,65,48,33,0.00,40.00,7,3,18,0.00